This demonstration page uses our WeatherBlox Daily Observations layout. Learn more.

Hourly Observations for August 21, 2017

Temp ( °F °C ) Dew Point ( °F °C ) Humidity (%) Winds ( mph kmh ) Pressure ( in mb ) Visibility ( mi km ) Precip ( " mm )
12:54 am 00:54 Clear 77 25 73 22.8 88 88 S 10 17 29.89 1012 10 16.0934 0 0
1:54 am 01:54 Clear 80 26.7 72 22.2 76 76 S 14 22 29.87 1012 10 16.0934 0 0
2:54 am 02:54 Clear 80 26.7 71 21.7 74 74 S 10 17 29.87 1011 10 16.0934 0 0
3:54 am 03:54 Clear 77 25 71 21.7 82 82 S 7 11 29.89 1012 10 16.0934 0 0
4:54 am 04:54 Cloudy 77 25 71 21.7 82 82 E 12 19 29.92 1013 10 16.0934 0 0
5:54 am 05:54 Mostly Clear with Nearby Thunderstorms 72 22.2 66 18.9 82 82 E 16 26 29.95 1014 10 16.0934 0 0
6:11 am 06:11 Mostly Cloudy 71 21.7 65 18.3 81 81 E 16 26 29.97 1015 10 16.0934 0 0
6:54 am 06:54 Sunny 70 21.1 65 18.3 84 84 E 14 22 29.97 1015 10 16.0934 0 0
7:54 am 07:54 Sunny 71 21.7 66 18.9 84 84 ESE 14 22 29.99 1016 10 16.0934 0 0
8:54 am 08:54 Sunny 73 22.8 67 19.4 81 81 ESE 13 20 29.99 1016 10 16.0934 0 0
9:54 am 09:54 Sunny 75 23.9 68 20 79 79 SE 18 30 29.98 1015 10 16.0934 0 0
10:54 am 10:54 Mostly Sunny 76 24.4 69 20.6 79 79 SE 18 30 29.97 1015 10 16.0934 0 0
11:54 am 11:54 Sunny 80 26.7 71 21.7 74 74 SSE 13 20 29.94 1014 10 16.0934 0 0
12:54 pm 12:54 Sunny 78 25.6 69 20.6 74 74 S 10 17 29.91 1013 10 16.0934 0 0
1:54 pm 13:54 Sunny 80 26.7 73 22.8 79 79 SSE 15 24 29.91 1013 10 16.0934 0 0
2:54 pm 14:54 Sunny 84 28.9 71 21.7 65 65 S 22 35 29.9 1012 10 16.0934 0 0
3:54 pm 15:54 Sunny 84 28.9 71 21.7 65 65 S 13 20 29.9 1012 10 16.0934 0 0
4:54 pm 16:54 Sunny 83 28.3 71 21.7 67 67 SSW 10 17 29.89 1012 10 16.0934 0 0
5:54 pm 17:54 Partly Cloudy 85 29.4 72 22.2 65 65 S 7 11 29.91 1013 10 16.0934 0 0
6:54 pm 18:54 Sunny 82 27.8 71 21.7 69 69 S 12 19 29.88 1012 10 16.0934 0 0
7:54 pm 19:54 Sunny 80 26.7 72 22.2 76 76 S 6 9 29.84 1011 10 16.0934 0 0
8:54 pm 20:54 Clear 77 25 71 21.7 82 82 NNE 5 7 29.89 1012 10 16.0934 0 0
9:54 pm 21:54 Mostly Cloudy 77 25 73 22.8 88 88 NE 3 6 29.91 1013 10 16.0934 0 0
10:07 pm 22:07 Mostly Cloudy with Nearby Thunderstorms 76 24.4 72 22.2 88 88 N 14 22 29.88 1012 10 16.0934 0 0
10:23 pm 22:23 Mostly Cloudy with Nearby Thunderstorms 72 22.2 65 18.3 79 79 NNE 29 46 29.94 1014 10 16.0934 0 0
10:35 pm 22:35 Cloudy 70 21.1 63 17.2 79 79 NNE 30 48 29.97 1015 10 16.0934 0 0
10:54 pm 22:54 Cloudy 68 20 64 17.8 87 87 NNE 17 28 29.97 1015 10 16.0934 0 0
11:12 pm 23:12 Mostly Cloudy 67 19.4 65 18.3 93 93 NE 12 19 29.97 1015 10 16.0934 0 0
11:54 pm 23:54 Cloudy 67 19.4 65 18.3 93 93 NNE 8 13 29.98 1015 10 16.0934 0 0

Powered by AerisWeather